IRIDIUM 134 (43075 NORAD) Tracking and Keplerian Element Data

This shows tracking and keplerian element data for the satellite.

Feedback or suggestion? Click here.




ElementValue
Catalog43075
NameIRIDIUM 134
Epoch Orbit418
Epoch Day20.93927653
Epoch Year2018
RAAN164.6376
Inclination86.4001
Eccentricity0.000166
Argument of Perigee96.6745
Mean Anonmoly263.464
Mean Motion14.34216161
Decay Rate6.7E-07
L11 43075U 17083F 18020.93927653 .00000067 00000-0 16709-4 0 9993
L22 43075 86.4001 164.6376 0001660 96.6745 263.4640 14.34216161 4180

Live tracking and technical data element details for IRIDIUM 134 (NORAD 43075). IRIDIUM 134 can be tracked NOW for your location showing map with azimuth and elevation plus other details from your city location.

Track the satellite on the map from your city or location and see movement details for azimuth, elevation, latitude, longitude, range, height, and movement on the map or in text.







IsCatalogInMostPopularTable: catalog: 43075, numindb: 104
Update: records affected: 1



GetName: 43075 IRIDIUM 134

Hit Count: updated at: Fri, 20 Jul 2018 06:56:11 GMT